Wind_Speed
30 26 24 22 16 12 21 20 21 17 15 16 21 23 26 29 29 28 27 27 20 19 17 14 11 11 8 4 2 1 4 4 5 5 6 7 4 7 9 10 13 7 9
31 28 26 22 18 14 23 19 19 18 17 23 23 26 30 27 26 25 24 21 19 16 15 16 14 11 10 9 6 7 6 5 4 6 7 8 9 8 9 12 15 14 12
31 31 29 26 22 19 20 20 20 20 22 26 24 21 22 21 23 22 20 18 17 16 16 14 14 13 11 9 7 8 10 10 11 12 15 14 14 14 15 16 18 21 20
35 32 31 30 26 25 23 22 22 22 26 25 27 25 24 22 22 20 18 15 16 16 15 14 13 12 10 10 12 13 15 16 16 18 19 20 21 23 24 26 28 27 25
37 36 32 34 32 31 29 30 28 27 27 26 23 25 24 23 23 22 21 20 20 19 17 16 17 17 16 15 16 17 19 21 23 23 24 27 28 28 30 32 33 33 32
36 38 36 36 34 30 29 33 33 33 31 32 31 28 28 29 29 27 26 24 24 23 22 21 21 22 22 24 25 24 25 28 32 32 31 30 32 33 33 33 34 36 37
40 39 38 37 34 32 31 34 36 34 32 31 27 29 28 27 25 32 32 32 30 29 28 28 30 32 33 33 33 33 34 36 34 36 36 37 38 38 40 43 44 43 42
46 44 42 40 37 34 34 33 33 33 33 31 28 27 24 23 25 27 30 38 37 35 34 33 32 33 36 38 38 40 41 42 43 43 42 42 43 46 47 48 46 45 45
50 50 47 44 42 39 37 35 35 35 33 32 31 31 25 27 29 39 39 35 34 36 37 39 40 41 42 42 42 43 44 45 44 42 45 47 48 50 50 51 50 49 51
57 54 54 51 48 46 45 42 40 38 33 29 28 30 32 31 29 33 36 34 37 38 41 43 43 47 44 46 48 46 47 47 47 47 49 51 54 54 54 54 56 58 58
61 60 61 58 55 53 50 48 44 42 36 40 44 42 40 38 39 44 45 45 47 52 52 50 50 49 52 52 52 51 49 49 50 51 53 58 62 61 62 63 62 64 67
67 68 64 63 61 58 56 54 50 49 46 46 50 50 44 42 46 45 51 53 53 54 54 53 53 54 54 55 56 57 57 58 59 61 65 70 66 68 69 71 73 75 78
72 72 72 69 66 61 62 62 61 54 58 54 50 53 49 47 45 47 53 54 56 54 51 56 59 61 61 61 61 61 64 66 68 72 73 70 71 73 76 79 79 79 85
81 78 77 78 75 72 68 69 65 60 57 60 58 56 51 49 54 47 48 44 51 55 55 56 60 62 64 64 67 70 72 73 76 80 82 82 81 85 88 92 94 97 101
91 85 84 84 83 79 78 77 74 69 64 63 64 62 61 60 61 60 54 59 61 60 58 62 68 70 72 76 75 79 79 82 87 91 94 98 98 98 100 103 106 110 112
94 92 89 87 87 87 85 84 81 79 75 74 74 72 67 63 58 57 61 61 64 70 74 78 81 80 82 83 84 85 88 92 95 95 97 101 104 108 108 108 112 116 121
97 97 96 95 93 94 92 89 88 87 85 81 81 77 75 71 71 67 70 65 72 74 74 79 83 85 87 91 94 97 99 99 99 97 100 106 109 113 117 119 120 122 128
98 100 102 103 99 98 97 96 94 92 92 90 86 82 81 78 79 77 78 85 82 83 84 91 94 96 99 102 102 102 104 104 107 109 111 114 118 121 126 128 129 132 135
91 98 102 106 106 106 103 101 100 100 99 98 98 95 88 87 84 88 91 91 92 96 96 95 100 104 105 108 111 110 110 110 110 116 120 125 128 129 131 133 137 137 141
82 86 89 98 106 112 110 109 108 107 105 104 103 103 101 98 96 95 96 96 101 102 102 104 106 110 111 112 114 117 121 125 128 131 132 134 135 135 136 140 142 147 152
92 93 92 91 90 98 107 110 112 112 112 110 109 107 107 105 103 103 103 102 102 104 108 109 113 113 112 113 118 123 126 128 129 131 133 137 137 137 145 148 151 148 145
73 95 105 99 95 93 93 99 105 108 111 114 114 110 109 106 105 103 105 106 104 105 109 114 116 118 117 120 126 131 133 133 137 137 135 138 141 144 147 146 142 140 135
75 74 76 96 106 104 103 100 100 102 104 106 107 108 110 112 110 110 111 113 115 114 115 119 122 122 123 128 131 133 135 135 137 139 139 141 143 138 142 140 132 125 127
76 75 75 76 80 93 106 106 103 106 108 109 108 106 105 105 110 113 111 114 115 116 118 119 120 122 127 126 127 130 133 131 128 127 129 134 129 130 128 118 112 113 115
71 76 78 79 80 81 85 92 99 101 112 116 114 112 115 114 114 114 119 118 117 119 119 120 119 122 125 124 126 124 113 115 122 115 116 113 102 106 109 105 106 105 104
51 59 66 72 75 78 81 82 82 84 84 88 95 105 109 109 110 110 111 109 110 114 113 112 112 115 109 105 103 93 91 94 93 93 98 95 94 95 95 98 99 100 100
Wind_Direction
185 188 182 189 213 233 181 184 206 207 183 170 164 162 155 154 155 157 160 165 166 169 169 169 175 159 159 158 199 195 246 311 317 355 7 2 357 348 350 349 348 330 326
199 196 197 200 216 215 181 184 181 175 176 168 166 160 154 153 153 158 164 168 165 164 171 182 191 196 197 218 225 254 284 298 279 296 309 308 310 303 317 328 323 319 310
194 197 200 204 204 208 191 188 185 178 178 172 171 173 171 162 158 159 165 171 176 184 194 203 209 210 218 237 254 257 266 280 282 289 296 292 285 283 291 299 305 306 302
203 202 204 202 203 200 202 197 192 187 183 181 179 179 180 178 175 182 192 200 210 219 213 210 225 243 252 267 272 271 282 290 296 294 290 286 283 279 284 290 297 297 294
214 209 209 206 211 204 201 206 204 199 197 197 195 202 199 199 205 204 215 224 228 226 230 243 253 251 253 265 273 275 284 287 290 293 289 285 282 285 285 286 288 290 288
223 217 209 212 214 211 205 202 202 203 207 205 205 205 210 213 221 224 231 236 232 239 247 254 266 263 263 272 275 278 278 282 286 285 286 283 280 283 288 289 289 288 287
224 220 217 213 211 209 203 202 202 205 206 205 211 216 216 217 233 236 240 241 243 242 248 255 264 269 272 276 278 279 280 287 287 287 287 287 287 286 288 290 290 289 288
222 218 215 215 211 212 208 211 209 212 215 216 218 220 232 242 250 251 243 238 242 248 251 263 264 267 270 272 274 279 282 285 286 286 285 289 291 292 291 292 289 289 289
215 216 212 214 212 212 213 212 214 215 220 227 231 239 246 267 272 265 257 255 252 253 255 260 267 274 276 274 274 274 278 281 282 285 289 289 289 291 293 292 289 288 292
219 217 215 212 214 214 213 214 216 216 219 230 242 241 253 260 263 264 259 264 272 261 264 267 280 276 275 273 274 276 278 283 284 282 280 283 286 287 287 288 287 288 288
225 222 220 214 214 217 219 220 219 217 226 240 238 249 249 251 255 259 263 267 275 277 274 276 278 280 278 276 276 279 281 281 283 284 286 290 294 289 286 286 287 287 286
228 228 223 222 220 219 222 221 225 223 231 239 243 248 252 253 254 256 265 267 271 274 274 272 274 275 274 276 277 279 281 281 285 290 292 293 293 292 294 289 287 286 287
231 230 229 227 224 225 227 226 228 232 236 237 241 246 252 253 251 262 261 262 264 269 271 270 271 273 275 275 275 276 278 279 282 290 293 291 291 296 298 296 294 293 293
232 232 231 230 230 230 231 231 230 233 239 240 242 247 243 249 248 260 251 257 253 262 270 270 268 269 273 272 276 279 278 277 284 287 290 292 293 292 293 295 296 298 299
234 233 234 233 231 233 235 236 232 233 237 239 242 243 246 251 249 253 257 261 256 261 266 270 272 272 271 274 274 277 279 282 285 287 289 291 292 294 294 293 294 295 296
232 234 234 237 238 235 237 237 236 237 237 237 243 246 251 247 245 244 255 263 263 264 268 271 271 270 271 273 274 275 277 282 284 285 286 288 288 290 293 293 293 293 296
231 233 235 236 237 239 240 239 239 239 239 241 245 248 251 247 249 248 251 256 260 262 260 263 266 270 272 273 275 277 279 281 283 284 284 287 287 289 291 293 295 295 295
232 231 233 236 239 240 241 243 243 242 243 247 249 252 252 251 250 251 254 257 261 262 266 268 271 272 273 275 275 274 276 278 280 281 282 283 287 289 292 293 293 293 295
236 235 235 236 238 240 243 245 246 246 247 247 247 251 252 254 255 256 257 259 261 262 264 265 266 268 269 271 272 274 276 277 279 280 282 286 286 288 290 292 293 295 298
236 240 239 240 240 240 242 245 246 247 249 250 252 253 254 257 257 259 260 262 264 264 266 267 268 268 269 270 272 275 279 280 282 282 283 285 287 288 291 294 296 297 301
233 238 245 247 244 244 244 245 248 248 248 249 252 254 258 260 262 264 266 266 267 269 271 275 275 275 275 277 280 279 279 281 282 282 285 288 291 290 294 296 295 298 298
241 240 238 242 244 247 247 248 251 252 254 254 256 259 260 261 263 262 264 266 269 272 273 274 274 276 277 279 280 278 279 282 284 286 288 289 292 294 296 297 297 298 297
242 243 243 242 240 242 245 248 249 250 253 256 257 260 262 264 265 263 264 265 267 270 270 269 267 270 273 277 278 281 282 285 288 289 290 289 291 295 297 297 296 297 296
241 242 242 244 247 247 245 246 248 250 252 253 255 258 260 261 264 264 265 267 269 269 271 270 272 275 276 280 284 287 287 288 289 291 290 289 294 293 294 295 296 295 294
240 241 242 243 245 247 248 250 251 254 254 252 253 255 257 258 260 262 265 266 268 271 274 276 276 277 281 283 285 287 287 288 290 290 288 292 292 290 290 294 294 295 298
245 246 246 245 245 246 248 249 251 254 256 256 258 259 261 262 264 266 267 270 271 272 274 275 278 283 283 284 284 284 285 290 292 289 288 291 292 293 294 294 297 299 301
Height
10952 10954 10957 10961 10963 10965 10968 10970 10972 10974 10976 10977 10980 10983 10986 10988 10991 10995 10998 11001 11002 11004 11008 11009 11010 11011 11011 11012 11012 11011 11011 11011 11011 11010 11008 11008 11008 11008 11008 11006 11005 11003 11002
10951 10953 10955 10958 10960 10963 10966 10969 10972 10973 10975 10978 10981 10986 10989 10992 10993 10996 11000 11002 11003 11005 11007 11009 11011 11011 11011 11012 11012 11011 11010 11010 11009 11009 11008 11007 11006 11006 11006 11005 11003 11001 11000
10948 10952 10954 10956 10958 10961 10964 10966 10970 10973 10975 10978 10981 10987 10991 10994 10996 10998 11000 11002 11004 11007 11008 11009 11009 11009 11009 11009 11009 11009 11009 11009 11008 11007 11007 11006 11005 11003 11002 11001 10999 10997 10995
10944 10948 10952 10955 10957 10958 10961 10964 10967 10971 10974 10978 10982 10987 10991 10994 10995 10997 11000 11001 11003 11005 11006 11006 11006 11006 11006 11006 11006 11005 11005 11006 11005 11004 11003 11003 11002 11000 10998 10996 10994 10992 10990
10939 10942 10946 10950 10954 10955 10959 10963 10965 10968 10972 10975 10979 10984 10987 10990 10993 10995 10996 10997 10999 11000 11002 11003 11002 11001 11000 11001 11001 11000 11000 11001 11000 10999 10998 10997 10996 10994 10992 10990 10987 10985 10983
10933 10936 10940 10943 10947 10951 10954 10957 10961 10964 10969 10973 10975 10977 10981 10984 10987 10988 10991 10992 10993 10994 10994 10995 10996 10996 10996 10995 10995 10995 10994 10994 10993 10992 10990 10989 10988 10985 10983 10981 10979 10977 10975
10925 10930 10933 10936 10940 10943 10947 10950 10954 10958 10962 10966 10970 10973 10975 10978 10980 10981 10984 10986 10986 10987 10988 10989 10989 10989 10988 10988 10987 10986 10985 10985 10984 10983 10981 10980 10978 10976 10974 10971 10969 10967 10965
10917 10922 10926 10930 10935 10939 10941 10944 10947 10951 10955 10958 10962 10967 10969 10972 10974 10975 10974 10975 10977 10979 10980 10981 10980 10980 10980 10979 10979 10978 10977 10976 10975 10973 10971 10969 10968 10965 10963 10960 10957 10956 10953
10907 10913 10918 10924 10929 10934 10936 10939 10942 10945 10949 10953 10957 10959 10962 10964 10965 10964 10966 10968 10968 10969 10970 10971 10971 10970 10970 10969 10969 10968 10967 10965 10964 10961 10960 10959 10957 10954 10952 10949 10946 10944 10942
10897 10903 10907 10912 10918 10922 10927 10931 10933 10937 10941 10945 10948 10951 10952 10953 10955 10956 10957 10958 10959 10960 10960 10960 10960 10960 10959 10958 10957 10955 10954 10953 10951 10950 10948 10946 10944 10941 10938 10935 10932 10929 10925
10886 10891 10895 10900 10904 10911 10916 10920 10923 10927 10930 10933 10936 10937 10940 10942 10943 10944 10946 10947 10948 10947 10947 10947 10946 10946 10945 10945 10943 10943 10942 10940 10938 10936 10934 10932 10929 10926 10922 10919 10915 10912 10907
10871 10877 10883 10889 10892 10897 10903 10908 10911 10915 10917 10920 10924 10925 10928 10930 10932 10932 10933 10933 10934 10934 10933 10933 10932 10932 10931 10930 10930 10929 10928 10926 10924 10922 10919 10916 10912 10909 10906 10902 10898 10893 10889
10857 10862 10869 10874 10881 10885 10889 10893 10898 10902 10905 10907 10912 10914 10917 10919 10921 10922 10920 10920 10920 10919 10918 10917 10917 10916 10916 10916 10915 10913 10912 10910 10908 10904 10900 10897 10894 10891 10887 10883 10878 10873 10869
10840 10846 10851 10857 10865 10870 10875 10880 10883 10886 10890 10895 10898 10901 10903 10905 10907 10907 10908 10908 10908 10906 10904 10902 10900 10900 10900 10900 10899 10896 10894 10891 10888 10884 10881 10878 10874 10871 10867 10862 10855 10849 10843
10819 10829 10832 10839 10846 10854 10859 10862 10867 10870 10874 10878 10883 10886 10888 10890 10892 10895 10896 10895 10894 10891 10890 10888 10885 10883 10883 10882 10881 10877 10875 10871 10868 10864 10859 10855 10850 10845 10841 10835 10830 10823 10817
10800 10808 10813 10818 10824 10832 10838 10844 10849 10852 10855 10859 10864 10869 10872 10874 10876 10878 10881 10881 10880 10878 10875 10872 10868 10867 10865 10861 10859 10856 10855 10851 10847 10842 10837 10832 10826 10819 10813 10807 10801 10795 10787
10780 10786 10792 10795 10803 10809 10815 10822 10829 10833 10837 10841 10845 10850 10853 10858 10860 10861 10862 10862 10860 10858 10855 10851 10849 10848 10846 10842 10839 10836 10832 10828 10823 10818 10813 10808 10802 10795 10787 10780 10773 10764 10755
10755 10764 10770 10775 10784 10790 10795 10799 10807 10814 10817 10822 10825 10829 10834 10837 10839 10841 10842 10840 10840 10839 10838 10833 10831 10827 10824 10821 10818 10813 10809 10806 10801 10795 10787 10780 10773 10764 10757 10750 10741 10731 10721
10731 10739 10747 10753 10762 10769 10775 10781 10785 10790 10795 10799 10804 10807 10812 10816 10818 10819 10817 10818 10819 10818 10817 10814 10809 10805 10802 10799 10794 10790 10785 10780 10774 10766 10759 10753 10744 10736 10727 10718 10707 10698 10686
10708 10714 10722 10730 10739 10746 10753 10759 10763 10766 10771 10777 10780 10784 10788 10791 10793 10795 10796 10799 10797 10795 10792 10791 10786 10782 10778 10775 10770 10766 10761 10752 10746 10740 10731 10723 10714 10705 10695 10685 10675 10662 10649
10686 10696 10702 10708 10714 10722 10728 10733 10738 10744 10749 10754 10758 10762 10765 10768 10770 10770 10773 10772 10770 10770 10766 10765 10760 10755 10754 10750 10745 10739 10732 10724 10716 10708 10700 10692 10682 10672 10663 10654 10639 10625 10611
10665 10672 10679 10686 10692 10698 10704 10709 10714 10719 10725 10731 10735 10739 10742 10747 10748 10750 10750 10747 10746 10743 10742 10738 10734 10732 10728 10722 10715 10710 10706 10697 10688 10680 10671 10660 10651 10639 10628 10619 10604 10592 10579
10644 10650 10655 10662 10669 10675 10680 10685 10691 10696 10700 10704 10710 10714 10718 10720 10722 10724 10724 10725 10725 10721 10718 10716 10709 10706 10701 10693 10688 10682 10677 10670 10661 10649 10639 10629 10620 10609 10596 10587 10572 10558 10543
10624 10630 10636 10641 10645 10651 10657 10661 10666 10672 10678 10681 10686 10690 10693 10697 10697 10696 10698 10696 10696 10691 10687 10686 10682 10676 10672 10666 10662 10656 10649 10638 10627 10617 10605 10596 10588 10579 10564 10556 10542 10529 10517
10606 10611 10617 10622 10626 10630 10635 10639 10643 10646 10651 10656 10661 10668 10670 10671 10672 10674 10671 10670 10667 10666 10664 10659 10651 10648 10645 10641 10636 10624 10612 10604 10597 10583 10578 10574 10560 10550 10540 10526 10515 10503 10491
10587 10592 10597 10602 10608 10612 10616 10620 10623 10626 10629 10633 10635 10639 10644 10645 10647 10647 10645 10643 10640 10640 10637 10634 10628 10623 10620 10613 10605 10593 10585 10579 10568 10559 10554 10544 10533 10523 10510 10498 10487 10476 10465